CST-100 STARLINER

Last updated on Thu Jun 06 2024 00:02:05 GMT+0000 (Coordinated Universal Time)

1 59968U 24109A 24157.82617044 -.00000733 00000+0 00000+0 0 9996 2 59968 51.6309 11.7644 0007811 281.7905 198.3306 15.82308446 39
UTC large
Height (km)
Speed (km/s)
/
Latitude / Longitude
Inclination (degrees)
Orbital Period (minutes)
Azimuth
Elevation
Range (km)
Doppler Factor

Next 0 passes for location: London (51.5072 / 0.1276)

Sorry there are no passes over London.